Marion, IN

6:24 PM EDT on June 23, 2017 (GMT -0400)
Marion Municipal

Weather History for KMZZ - February, 2012

Change the Weather History Date:

Wednesday, February 29, 2012

  Actual Average (KMIE) Record (KMIE)
Temperature  
Mean Temperature 53 °F -  
Max Temperature 65 °F - 70 °F (1976)
Min Temperature 41 °F - 2 °F (1980)
Degree Days  
Heating Degree Days 12    
Growing Degree Days 3 (Base 50)    
Moisture  
Dew Point 36 °F    
Average Humidity 56    
Maximum Humidity 84    
Minimum Humidity 22    
Precipitation  
Precipitation 0.29 in - - ()
Sea Level Pressure  
Sea Level Pressure 29.66 in    
Wind  
Wind Speed 14 mph (SSW)    
Max Wind Speed 28 mph    
Max Gust Speed 33 mph    
Visibility 8 miles    
Events Rain    
Averages and records for this station are not official NWS values.
T = Trace of Precipitation, MM = Missing Value Source: NWS Daily Summary

Daily Weather History Graph

Daily Weather History Graph

Search for Another Location

Airport or City:

Trip Planner

Search our weather history database for the weather conditions in past years. The results will help you decide how hot, cold, wet, or windy it might be!

Date:

Astronomy

Feb. 29, 2012 Rise Set
Actual Time 7:17 AM EST 6:33 PM EST
Civil Twilight 6:49 AM EST 7:01 PM EST
Nautical Twilight 6:18 AM EST 7:32 PM EST
Astronomical Twilight 5:46 AM EST 8:04 PM EST
Moon 11:05 AM EST (2/29) 1:21 AM EST (2/29)
Length of Visible Light 12h 11m
Length of Day
11h 16m
Waxing Crescent, 47% of the Moon is Illuminated
Feb 29
Waxing Crescent
Feb 29
First Quarter
Mar 8
Full
Mar 14
Last Quarter
Mar 22
New

Hourly Weather History & Observations

Time (EST) Temp. Windchill Dew Point Humidity Pressure Visibility Wind Dir Wind Speed Gust Speed Precip Events Conditions
12:15 AM 45.7 °F 39.5 °F 22.6 °F 40% 29.94 in 10.0 mi ESE 13.8 mph - N/A   Overcast
12:35 AM 45.3 °F 39.3 °F 23.2 °F 42% 29.91 in 10.0 mi ESE 12.7 mph - N/A   Overcast
12:55 AM 44.4 °F 37.9 °F 25.3 °F 47% 29.89 in 10.0 mi ESE 13.8 mph - N/A   Overcast
1:15 AM 44.6 °F 37.2 °F 25.5 °F 47% 29.86 in 10.0 mi ESE 17.3 mph - N/A   Overcast
1:35 AM 43.7 °F 36.9 °F 27.3 °F 53% 29.86 in 10.0 mi ESE 13.8 mph - N/A   Overcast
1:55 AM 43.5 °F 38.3 °F 28.4 °F 55% 29.85 in 10.0 mi East 9.2 mph - N/A   Overcast
2:15 AM 43.5 °F 38.3 °F 28.9 °F 56% 29.86 in 10.0 mi ESE 9.2 mph - N/A Rain Light Rain
2:35 AM 42.6 °F 37.8 °F 30.6 °F 62% 29.82 in 7.0 mi East 8.1 mph - 0.03 in Rain Light Rain
3:15 AM 41.4 °F 36.8 °F 32.4 °F 70% 29.79 in 1.8 mi East 6.9 mph - 0.12 in   Overcast
3:35 AM 41.0 °F 33.9 °F 34.0 °F 76% 29.77 in 4.0 mi SE 12.7 mph - 0.16 in Rain Light Rain
3:55 AM 41.0 °F 34.3 °F 35.4 °F 81% 29.76 in 3.0 mi SE 11.5 mph - 0.23 in Rain Rain
4:15 AM 41.4 °F 35.7 °F 36.1 °F 82% 29.74 in 4.0 mi SE 9.2 mph - 0.02 in Rain Light Rain
4:35 AM 41.9 °F 35.9 °F 36.9 °F 82% 29.74 in 5.0 mi SE 10.4 mph - 0.03 in Rain Light Rain
4:55 AM 42.6 °F 37.2 °F 37.6 °F 82% 29.74 in 4.0 mi SE 9.2 mph - 0.03 in Rain Light Rain
5:15 AM 42.6 °F 37.2 °F 37.6 °F 82% 29.72 in 5.0 mi SE 9.2 mph - N/A   Haze
5:35 AM 42.8 °F 39.3 °F 37.8 °F 82% 29.73 in 5.0 mi ESE 5.8 mph - N/A   Haze
5:55 AM 43.0 °F 37.7 °F 38.1 °F 83% 29.72 in 5.0 mi SE 9.2 mph - N/A   Haze
6:15 AM 43.2 °F 37.9 °F 38.5 °F 84% 29.69 in 5.0 mi SE 9.2 mph - N/A   Haze
6:35 AM 44.2 °F 39.2 °F 39.4 °F 83% 29.68 in 5.0 mi SE 9.2 mph - N/A   Haze
6:55 AM 44.8 °F 39.9 °F 39.9 °F 83% 29.67 in 5.0 mi SE 9.2 mph - N/A   Haze
7:15 AM 45.7 °F 40.6 °F 40.8 °F 83% 29.65 in 3.0 mi SE 10.4 mph - N/A   Haze
7:35 AM 46.4 °F 41.5 °F 41.5 °F 83% 29.62 in 1.5 mi ESE 10.4 mph - N/A   Haze
7:55 AM 47.3 °F - 42.4 °F 83% 29.61 in 1.5 mi SE 9.2 mph - N/A   Haze
8:15 AM 49.1 °F - 44.2 °F 83% 29.61 in 2.5 mi SSE 9.2 mph - N/A   Haze
8:35 AM 50.2 °F - 45.5 °F 84% 29.61 in 2.5 mi South 8.1 mph - N/A   Haze
8:55 AM 53.2 °F - 48.4 °F 84% 29.63 in 5.0 mi SW 9.2 mph - N/A   Haze
9:15 AM 54.9 °F - 50.0 °F 84% 29.64 in 7.0 mi WSW 12.7 mph - N/A   Scattered Clouds
9:35 AM 57.2 °F - 52.2 °F 83% 29.64 in 7.0 mi WSW 17.3 mph 23.0 mph N/A   Overcast
9:55 AM 58.8 °F - 53.1 °F 81% 29.63 in 10.0 mi WSW 19.6 mph 25.3 mph N/A   Mostly Cloudy
10:15 AM 59.9 °F - 52.9 °F 78% 29.63 in 10.0 mi WSW 21.9 mph 27.6 mph N/A   Overcast
10:35 AM 60.8 °F - 52.5 °F 74% 29.64 in 7.0 mi WSW 21.9 mph 32.2 mph N/A   Mostly Cloudy
10:55 AM 62.2 °F - 49.5 °F 63% 29.63 in 10.0 mi WSW 27.6 mph 32.2 mph N/A   Scattered Clouds
11:15 AM 62.6 °F - 46.8 °F 56% 29.64 in 10.0 mi WSW 26.5 mph 31.1 mph N/A   Clear
11:35 AM 63.0 °F - 45.7 °F 53% 29.64 in 7.0 mi WSW 23.0 mph 29.9 mph N/A   Clear
11:55 AM 63.5 °F - 43.5 °F 48% 29.64 in 10.0 mi WSW 21.9 mph 28.8 mph N/A   Clear
12:15 PM 64.2 °F - 42.4 °F 45% 29.64 in 10.0 mi West 21.9 mph 29.9 mph N/A   Clear
12:35 PM 64.4 °F - 38.5 °F 38% 29.63 in 10.0 mi West 21.9 mph 29.9 mph N/A   Clear
12:55 PM 64.6 °F - 36.1 °F 35% 29.63 in 10.0 mi West 19.6 mph 26.5 mph N/A   Clear
1:15 PM 65.1 °F - 37.8 °F 36% 29.62 in 10.0 mi West 23.0 mph 33.4 mph N/A   Clear
1:35 PM 65.3 °F - 35.8 °F 34% 29.61 in 10.0 mi West 25.3 mph - N/A   Clear
1:55 PM 65.3 °F - 35.2 °F 33% 29.59 in 10.0 mi West 16.1 mph - N/A   Clear
2:15 PM 65.3 °F - 34.3 °F 32% 29.59 in 10.0 mi WSW 24.2 mph 27.6 mph N/A   Clear
2:35 PM 65.1 °F - 32.4 °F 29% 29.58 in 10.0 mi WSW 20.7 mph 25.3 mph N/A   Clear
2:55 PM 65.3 °F - 30.9 °F 28% 29.56 in 10.0 mi WSW 19.6 mph 25.3 mph N/A   Scattered Clouds
3:15 PM 65.3 °F - 29.3 °F 26% 29.56 in 10.0 mi WSW 17.3 mph 29.9 mph N/A   Scattered Clouds
3:35 PM 64.9 °F - 26.2 °F 23% 29.55 in 10.0 mi WSW 24.2 mph 33.4 mph N/A   Clear
3:55 PM 64.4 °F - 24.4 °F 22% 29.55 in 10.0 mi WSW 23.0 mph 29.9 mph N/A   Clear
4:15 PM 64.2 °F - 25.3 °F 23% 29.54 in 10.0 mi WSW 24.2 mph 28.8 mph N/A   Clear
4:55 PM 62.8 °F - 28.2 °F 27% 29.53 in 10.0 mi WSW 20.7 mph 31.1 mph N/A   Clear
5:15 PM 62.1 °F - 29.5 °F 29% 29.52 in 10.0 mi WSW 17.3 mph 21.9 mph N/A   Scattered Clouds
5:35 PM 61.2 °F - 25.0 °F 25% 29.51 in 10.0 mi WSW 25.3 mph 32.2 mph N/A   Clear
5:55 PM 59.7 °F - 22.6 °F 24% 29.52 in 10.0 mi WSW 21.9 mph 31.1 mph N/A   Scattered Clouds
6:15 PM 58.5 °F - 25.2 °F 28% 29.52 in 10.0 mi WSW 18.4 mph 28.8 mph N/A   Scattered Clouds
6:35 PM 57.2 °F - 26.2 °F 31% 29.52 in 7.0 mi WSW 20.7 mph - N/A   Scattered Clouds
6:55 PM 56.5 °F - 25.3 °F 30% 29.52 in 7.0 mi WSW 19.6 mph 26.5 mph N/A   Clear
7:15 PM 55.9 °F - 25.9 °F 31% 29.53 in 10.0 mi SW 17.3 mph 25.3 mph N/A   Scattered Clouds
7:35 PM 55.4 °F - 24.3 °F 30% 29.53 in 10.0 mi WSW 21.9 mph 33.4 mph N/A   Mostly Cloudy
7:55 PM 54.3 °F - 23.0 °F 30% 29.56 in 10.0 mi West 31.1 mph 39.1 mph N/A   Mostly Cloudy
8:15 PM 51.1 °F - 26.2 °F 38% 29.57 in 10.0 mi WNW 19.6 mph 27.6 mph N/A   Mostly Cloudy
8:35 PM 49.5 °F - 27.0 °F 42% 29.60 in 10.0 mi WNW 25.3 mph 34.5 mph N/A   Overcast
8:55 PM 47.5 °F - 27.1 °F 45% 29.61 in 10.0 mi WNW 20.7 mph 32.2 mph N/A   Overcast
9:15 PM 46.4 °F 37.9 °F 26.8 °F 46% 29.62 in 10.0 mi WNW 25.3 mph 29.9 mph N/A   Overcast
9:35 PM 45.7 °F 35.9 °F 25.5 °F 45% 29.63 in 10.0 mi West 32.2 mph 39.1 mph N/A   Overcast
9:55 PM 45.1 °F 35.5 °F 23.9 °F 43% 29.64 in 10.0 mi West 29.9 mph 39.1 mph N/A   Overcast
10:15 PM 44.6 °F 35.5 °F 23.7 °F 44% 29.64 in 10.0 mi West 25.3 mph 36.8 mph N/A   Overcast
10:35 PM 44.1 °F 35.0 °F 24.3 °F 46% 29.64 in 10.0 mi West 24.2 mph 32.2 mph N/A   Overcast
10:55 PM 43.2 °F 33.6 °F 24.6 °F 48% 29.65 in 10.0 mi West 25.3 mph 35.7 mph N/A   Overcast
11:15 PM 42.1 °F 33.6 °F 25.0 °F 51% 29.67 in 10.0 mi WNW 18.4 mph 28.8 mph N/A   Overcast
11:35 PM 40.6 °F 31.7 °F 25.7 °F 55% 29.68 in 10.0 mi WNW 18.4 mph 23.0 mph N/A   Overcast
11:55 PM 39.6 °F 31.3 °F 25.9 °F 58% 29.69 in 10.0 mi WNW 15.0 mph 20.7 mph N/A   Overcast